Location: Alafon
(8.4500°N, 4.2333°E)
Time: 13:49:17
(UTC+00:00)

Vanguard 1 Rocket - Pass Details

Date: 27 July 2021
Orbit: 650 x 4226 km, 34.3° (Epoch: 27 September)

Event Time Altitude Azimuth Distance (km) Brightness Sun altitude
Rises 05:02:15 0° 214° (SSW) 7,751 11.6 -8.3°
Reaches altitude 10° 05:08:24 10° 204° (SSW) 7,072 11.5 -6.8°
Maximum altitude 05:30:23 34° 146° (SE) 5,532 11.6 -1.7°
Drops below altitude 10° 05:49:28 10° 89° (E) 6,344 13.4 2.7°
Sets 05:54:20 0° 80° (E) 6,931 14.3 3.9°
